Погода в Коварчине

Россия / Ивановская область     56°58′56″N   40°03′22″E
темп.,
°C
ветер,
м/с
пор.,
м/с
влажн.,
%
обл.,
%
осадки,
мм/ч
давл.,
гПа
погр.,
м
14 апреля, ср
ср1400:00+11ююв3126815 0.0 1023190
03:00+10ююв4116746 0.0 1023220
06:00+9ююв411736 0.0 1022199
09:00+14ю58575 0.0 1021342
12:00+18ю584540 0.0 1020859
15:00+20ю6733100 0.0 10191725
18:00+17ююв3845100 0.0 1018169
21:00+12ю375978 0.0 1019103
15 апреля, чт
чт1500:00+10ю236460 0.0 101923
03:00+8юз116576 0.0 101810
06:00+8всв1168100 0.0 101910
09:00+11св2459100 0.0 1019218
12:00+15св4553100 0.0 1019781
15:00+14ссв6663100 0.0 10201036
18:00+10св61077100 0.0 1021603
21:00+6св61383100 0.0 1023507
16 апреля, пт
пт1600:00+5св61383100 0.0 1024512
03:00+5всв61378100 0.0 1025504
06:00+4всв51384100 0.0 1025504
09:00+7всв6106792 0.0 1026588
12:00+10всв6854100 0.0 1026895
15:00+12всв6847100 0.0 10261177
18:00+11всв594585 0.0 1027876
21:00+7всв4115789 0.0 1028311
17 апреля, сб
сб1700:00+5всв5126142 0.0 1029386
03:00+3всв4126843 0.0 1029314
06:00+2всв4126958 0.0 1031326
09:00+7всв610465 0.0 1031671
12:00+11всв68365 0.0 10301204
15:00+12всв57355 0.0 10301457
18:00+11всв48420 0.0 1029552
21:00+6всв37610 0.0 1030117
18 апреля, вс
вс1800:00+4всв39710 0.0 1031151
03:00+3всв37760 0.0 1031116
06:00+2всв37800 0.0 1032137
09:00+9всв46570 0.0 1031520
12:00+12всв46415 0.0 10311573
15:00+13всв56405 0.0 10301888
18:00+12всв36486 0.0 1030446
21:00+7всв346684 0.0 103155